[[{"header":{"parameterUnit":"m.s-1","parameterCategory":2,"la1":30.2991,"la2":30.254,"lo1":-89.0895,"lo2":-89.0444,"dy":0.0017,"dx":0.0017,"nx":28,"ny":28,"refTime":"2025-12-05T09:00:00:Z","depth":"0","parameterNumber":2,"parameterNumberName":"U-component_of_CURRENTS"},"data":[0,0,0,0,0,0,0,0,0,0,0,0,0,0,0,0,0,0,0,0,0,0,0,0,0,0,0,0,0,0,0,0,0,0,0,0,0,0,0,0,0,0,0,0,0,0,0,0,0,0,0,0,0,0,0,0,0,0,0.4101,0.4101,0,0.4037,0.4036,0.4035,0.397,0.397,0.3969,0.3968,0.3861,0.3858,0.3856,0,0,0,0,0,0,0,0,0,0,0,0,0,0.419,0.4188,0.4102,0.4101,0.41,0.4037,0.4036,0.4034,0.397,0.397,0.3969,0.3968,0.3861,0.3859,0.3856,0,0,0,0,0,0,0,0,0,0,0,0,0,0.4138,0.4187,0.4102,0.4063,0.4059,0.4037,0.4036,0.4034,0.397,0.3969,0.3969,0.3968,0.3862,0.3859,0.3855,0.3851,0,0,0.3845,0.3843,0,0,0,0,0,0,0,0,0.4141,0.4134,0.4069,0.4066,0.4061,0.4013,0.4027,0.3972,0.3971,0.4001,0.3968,0.3967,0.391,0.3903,0.3889,0.3846,0.3842,0.3844,0.3842,0.3841,0.384,0,0,0,0,0,0,0,0.4144,0.4137,0.4073,0.4069,0.4064,0.4056,0.4047,0.4017,0.3958,0.3998,0.3994,0.3992,0.3907,0.3892,0.3886,0.384,0.3845,0.3841,0.3839,0.3838,0.3847,0.3849,0,0,0,0,0,0,0.4158,0.414,0.4075,0.4071,0.4103,0.4055,0.4045,0.4027,0.3959,0.3949,0.3993,0.3989,0.3899,0.389,0.3882,0.3912,0.3841,0.3838,0.3836,0.3844,0.3847,0.385,0,0,0,0,0,0,0.416,0.4152,0.4077,0.4108,0.4098,0.4055,0.4035,0.4026,0.4018,0.3956,0.3944,0.3995,0.3898,0.3887,0.3883,0.3905,0.3836,0.3833,0.3841,0.3845,0.3848,0.3947,0,0,0,0,0,0,0.4162,0.4153,0.4145,0.4108,0.4097,0.4079,0.4036,0.4026,0.4019,0.4014,0.3954,0.3943,0.3896,0.3889,0.388,0.3899,0.383,0.3839,0.3843,0.3847,0.394,0.3953,0.3964,0,0,0,0,0,0.4166,0.4155,0.4144,0.4137,0.4086,0.4081,0.4075,0.4039,0.4021,0.4027,0.3999,0.3945,0.391,0.3889,0.3877,0.3896,0.3836,0.3842,0.3847,0.3935,0.3951,0.3964,0,0,0,0,0,0,0.4177,0.4147,0.4134,0.4111,0.4107,0.4071,0.4069,0.4053,0.4034,0.4029,0.397,0.3958,0.3966,0.3927,0.3905,0.3916,0.3866,0.3869,0.3937,0.3951,0.3963,0.397,0.3827,0,0,0,0,0,0.4182,0.4171,0.4149,0.4135,0.4135,0.4109,0.4102,0.4085,0.4065,0.4055,0.4019,0.399,0.3978,0.3962,0.3942,0.3943,0.3917,0.3952,0.3964,0.3974,0.3976,0.3979,0.399,0.3867,0.3867,0.3867,0,0,0.4186,0.4166,0.4161,0.414,0.4128,0.4136,0.4101,0.4102,0.4113,0.4047,0.4051,0.4029,0.3992,0.3999,0.3998,0.3966,0.3998,0.398,0.3989,0.3985,0.3985,0.3997,0.4008,0.387,0.387,0.3869,0,0,0.4193,0.4173,0.4171,0.4174,0.4169,0.4162,0.4171,0.4153,0.415,0.4159,0.4125,0.4129,0.4091,0.408,0.4067,0.4135,0.4067,0.4124,0.4174,0.4179,0.4188,0.4196,0.4184,0.4191,0.4121,0.4121,0.4121,0,0.4196,0.4181,0.4175,0.4178,0.4179,0.4181,0.4188,0.42,0.4187,0.4191,0.4174,0.4162,0.4133,0.4151,0.4176,0.416,0.414,0.412,0.4192,0.42,0.4206,0.4192,0.4198,0.4127,0.4126,0.4125,0.4125,0,0.4205,0.4198,0.4202,0.4206,0.4218,0.4225,0.4245,0.4262,0.4263,0.4266,0.429,0.4272,0.4258,0.4262,0.4234,0.4272,0.4237,0.4212,0.4152,0.4224,0.4205,0.4209,0.4134,0.4132,0.4131,0.4129,0,0,0.4176,0.42,0.42,0.4201,0.4227,0.4231,0.4278,0.4304,0.4333,0.4344,0.4371,0.438,0.4372,0.436,0.4339,0.4346,0.4384,0.4299,0.4297,0.428,0.4378,0.4331,0.4329,0.4364,0.4365,0.4366,0.4348,0,0.4173,0.4186,0.4202,0.4221,0.4225,0.4253,0.4293,0.4329,0.4364,0.4402,0.4415,0.4435,0.4411,0.4409,0.4422,0.4397,0.4398,0.439,0.4317,0.4315,0.4257,0.4334,0.4174,0.4142,0.4351,0.4352,0.4352,0,0.4156,0.4167,0.4182,0.4211,0.4216,0.4237,0.4291,0.4333,0.4409,0.444,0.4482,0.449,0.4523,0.4487,0.4488,0.448,0.4437,0.4414,0.4412,0.4333,0.4275,0.4104,0.4141,0.404,0.4357,0.4357,0.4356,0,0.4113,0.4141,0.4148,0.4158,0.4206,0.4217,0.4252,0.4331,0.4373,0.4469,0.4495,0.455,0.456,0.4546,0.451,0.4494,0.4497,0.4464,0.438,0.4375,0.4207,0.4186,0.4128,0.4453,0.4453,0.4453,0.4453,0,0.4079,0.4078,0.4125,0.4125,0.4141,0.4188,0.4229,0.429,0.438,0.442,0.4501,0.4537,0.4572,0.4574,0.4536,0.4481,0.4515,0.4403,0.4377,0.4239,0.4222,0.4099,0.4055,0.4453,0.4453,0.4453,0.4453,0,0.4014,0.4048,0.4053,0.4101,0.4113,0.4126,0.4199,0.4232,0.4333,0.4389,0.4412,0.4529,0.4543,0.4553,0.4542,0.4497,0.4333,0.4416,0.4253,0.4209,0.4038,0.4005,0.3806,0.3691,0.4328,0.4327,0.4326,0,0.3981,0.3977,0.4021,0.4016,0.4028,0.4061,0.4078,0.4195,0.4236,0.4363,0.4371,0.4441,0.4459,0.4465,0.4429,0.4375,0.4248,0.418,0.413,0.4023,0.3966,0.3852,0.3761,0.3943,0.3939,0.3935,0.3933,0,0.391,0.3927,0.3934,0.393,0.3934,0.3949,0.3986,0.4013,0.413,0.4167,0.4223,0.4257,0.4322,0.4236,0.4215,0.4167,0.3997,0.4111,0.4031,0.3697,0.3532,0.3409,0.3962,0.3904,0.3906,0.3909,0.391,0.3911,0.3851,0.3835,0.3837,0.3811,0.3813,0.3784,0.3736,0.3791,0.3807,0.3801,0.3982,0.3946,0.4022,0.3996,0.3942,0.3782,0.3784,0.364,0.362,0.3523,0.3374,0.3874,0.3773,0.3775,0.3776,0.3778,0.3779,0,0.3749,0.3725,0.3707,0.3653,0.3571,0.363,0.3614,0.353,0.3451,0.3543,0.3552,0.3549,0.3498,0.354,0.347,0.3316,0.3185,0.3204,0.2997,0.294,0.3405,0.3354,0.3118,0.3118,0.3118,0.3118,0.3118,0.3118,0.3693,0.3626,0.3599,0.3409,0.335,0.3187,0.313,0.3053,0.3063,0.2967,0.2942,0.3015,0.3205,0.322,0.3069,0.2986,0.2751,0.2613,0.2621,0.2958,0.2997,0.3034,0.2977,0.2665,0.2664,0.2034,0.2029,0.2025]},{"header":{"parameterUnit":"m.s-1","parameterCategory":2,"la1":30.2991,"la2":30.254,"lo1":-89.0895,"lo2":-89.0444,"dy":0.0017,"dx":0.0017,"nx":28,"ny":28,"refTime":"2025-12-05T09:00:00:Z","depth":"0","parameterNumber":3,"parameterNumberName":"V-component_of_CURRENTS"},"data":[0,0,0,0,0,0,0,0,0,0,0,0,0,0,0,0,0,0,0,0,0,0,0,0,0,0,0,0,0,0,0,0,0,0,0,0,0,0,0,0,0,0,0,0,0,0,0,0,0,0,0,0,0,0,0,0,0,0,-0.0244,-0.0243,0,-0.0243,-0.0243,-0.0243,-0.0257,-0.0257,-0.0257,-0.0257,-0.029,-0.0291,-0.0292,0,0,0,0,0,0,0,0,0,0,0,0,0,-0.0293,-0.0292,-0.0244,-0.0243,-0.0243,-0.0243,-0.0243,-0.0243,-0.0257,-0.0257,-0.0257,-0.0257,-0.029,-0.0291,-0.0292,0,0,0,0,0,0,0,0,0,0,0,0,0,-0.0283,-0.0292,-0.0244,-0.0247,-0.0248,-0.0243,-0.0243,-0.0243,-0.0257,-0.0257,-0.0257,-0.0257,-0.0289,-0.0291,-0.0292,-0.0297,0,0,-0.0295,-0.0296,0,0,0,0,0,0,0,0,-0.0284,-0.0282,-0.0247,-0.0247,-0.0247,-0.0247,-0.0272,-0.0262,-0.0257,-0.0257,-0.0257,-0.0257,-0.0277,-0.0279,-0.0283,-0.0298,-0.03,-0.0296,-0.0296,-0.0297,-0.0297,0,0,0,0,0,0,0,-0.0284,-0.0282,-0.0246,-0.0247,-0.0247,-0.0261,-0.026,-0.0271,-0.0269,-0.0257,-0.0257,-0.0252,-0.0277,-0.0281,-0.0284,-0.03,-0.0296,-0.0297,-0.0297,-0.0298,-0.0322,-0.0322,0,0,0,0,0,0,-0.0275,-0.0282,-0.0246,-0.0246,-0.0262,-0.026,-0.0259,-0.025,-0.0268,-0.027,-0.0252,-0.0252,-0.0279,-0.0282,-0.0285,-0.0274,-0.0297,-0.0298,-0.0299,-0.0322,-0.0322,-0.0322,0,0,0,0,0,0,-0.0277,-0.0272,-0.0246,-0.0262,-0.0259,-0.0258,-0.0249,-0.025,-0.025,-0.0263,-0.0267,-0.0251,-0.028,-0.0283,-0.0299,-0.0276,-0.0298,-0.03,-0.0322,-0.0322,-0.0322,-0.0264,0,0,0,0,0,0,-0.0278,-0.0273,-0.0264,-0.0261,-0.0258,-0.0236,-0.0248,-0.0249,-0.0245,-0.0246,-0.0264,-0.0267,-0.028,-0.0297,-0.03,-0.0278,-0.03,-0.0322,-0.0322,-0.0322,-0.0266,-0.0262,-0.0258,0,0,0,0,0,-0.028,-0.0261,-0.0264,-0.0259,-0.0246,-0.0235,-0.0235,-0.0238,-0.0245,-0.0241,-0.0261,-0.0266,-0.0298,-0.0298,-0.0301,-0.0279,-0.0322,-0.0322,-0.0322,-0.0268,-0.0263,-0.0258,0,0,0,0,0,0,-0.028,-0.0261,-0.0263,-0.0241,-0.0236,-0.0236,-0.0229,-0.0234,-0.0247,-0.025,-0.027,-0.0275,-0.0279,-0.0294,-0.0293,-0.0288,-0.0309,-0.0309,-0.0266,-0.0262,-0.0258,-0.0231,-0.0301,0,0,0,0,0,-0.0275,-0.0258,-0.0248,-0.0233,-0.0227,-0.023,-0.0226,-0.0228,-0.0236,-0.0241,-0.0255,-0.0271,-0.0282,-0.0283,-0.0299,-0.0297,-0.0309,-0.0285,-0.0281,-0.0278,-0.026,-0.0264,-0.0258,-0.0321,-0.0321,-0.0321,0,0,-0.0276,-0.026,-0.0253,-0.0232,-0.023,-0.0207,-0.0229,-0.0218,-0.02,-0.0243,-0.0233,-0.0261,-0.0281,-0.028,-0.0282,-0.0287,-0.0271,-0.0278,-0.0274,-0.0258,-0.0263,-0.0256,-0.0251,-0.0321,-0.0321,-0.0321,0,0,-0.0251,-0.025,-0.022,-0.0209,-0.0193,-0.0194,-0.0188,-0.0186,-0.0187,-0.0188,-0.0212,-0.023,-0.0245,-0.0252,-0.0257,-0.0243,-0.0256,-0.0246,-0.0195,-0.0199,-0.0193,-0.0188,-0.0211,-0.0209,-0.0237,-0.0237,-0.0237,0,-0.0249,-0.0206,-0.0213,-0.0176,-0.0157,-0.0182,-0.0144,-0.015,-0.0156,-0.0143,-0.0178,-0.0196,-0.0227,-0.0207,-0.0209,-0.0231,-0.024,-0.0208,-0.0192,-0.0187,-0.0183,-0.0207,-0.0205,-0.0234,-0.0234,-0.0235,-0.0235,0,-0.0193,-0.0162,-0.0145,-0.0105,-0.0091,-0.0068,-0.0066,-0.0063,-0.0077,-0.0075,-0.0072,-0.0126,-0.013,-0.0148,-0.0177,-0.0154,-0.0174,-0.0191,-0.0197,-0.0172,-0.0201,-0.02,-0.023,-0.0231,-0.0232,-0.0233,0,0,-0.0169,-0.0114,-0.0106,-0.0066,-0.0048,-0.0022,-0.0003,0.0028,0.0069,0.0025,0.0069,0.0013,-0.0016,-0.0027,-0.0068,-0.008,-0.0084,-0.0117,-0.0118,-0.0128,-0.0098,-0.0118,-0.0119,-0.009,-0.0089,-0.0088,-0.0135,0,-0.0117,-0.0031,-0.0023,0.0052,0.0099,0.0087,0.0117,0.0135,0.0139,0.0168,0.011,0.012,0.0033,0.0028,0.0002,-0.0048,-0.0074,-0.007,-0.013,-0.0132,-0.0143,-0.0116,-0.0089,-0.0127,-0.0134,-0.0134,-0.0134,0,-0.0051,0.0001,0.0084,0.0158,0.0177,0.0208,0.0272,0.03,0.0321,0.0322,0.0311,0.0266,0.0233,0.0149,0.007,0.0081,-0.0006,-0.0062,-0.0065,-0.0096,-0.0148,-0.0152,-0.0125,-0.0279,-0.0132,-0.0132,-0.0133,0,-0.0001,0.0083,0.0155,0.0178,0.0244,0.0279,0.0311,0.0351,0.0407,0.0424,0.0457,0.0403,0.0387,0.028,0.0133,0.0111,0.0047,0.0001,-0.0105,-0.0109,-0.0103,-0.0107,-0.0218,-0.0062,-0.0062,-0.0062,-0.0062,0,0.0065,0.0126,0.0186,0.0229,0.0328,0.0346,0.0451,0.0474,0.0533,0.0628,0.054,0.0594,0.0422,0.0353,0.0197,0.006,0.0089,-0.0084,-0.0111,-0.0086,-0.0087,-0.0236,-0.0338,-0.0064,-0.0063,-0.0063,-0.0062,0,0.0116,0.0147,0.0244,0.0324,0.0358,0.043,0.0544,0.0628,0.0655,0.0773,0.0777,0.0754,0.0672,0.0478,0.0321,0.0161,-0.0074,-0.0053,-0.0024,-0.0047,-0.029,-0.0389,-0.0535,-0.0597,-0.0164,-0.0165,-0.0165,0,0.0149,0.0204,0.0318,0.0391,0.0432,0.0539,0.0624,0.0684,0.0792,0.0889,0.0964,0.0909,0.0918,0.0662,0.0372,0.01,-0.0077,-0.0077,-0.0123,-0.0286,-0.0417,-0.0495,-0.0542,-0.0106,-0.0106,-0.0105,-0.0105,0,0.0225,0.0259,0.0343,0.0486,0.0588,0.0715,0.0845,0.0946,0.1037,0.114,0.1277,0.1287,0.104,0.0811,0.0409,0.0206,-0.0178,-0.0085,-0.0249,-0.0371,-0.0465,-0.0542,-0.0114,-0.0105,-0.0105,-0.0105,-0.0105,-0.0105,0.0282,0.0351,0.0462,0.0602,0.0729,0.0889,0.1007,0.1162,0.1341,0.1518,0.152,0.158,0.1194,0.0678,0.0376,-0.0164,-0.0186,-0.0325,-0.0431,-0.0493,-0.0555,-0.0137,-0.0162,-0.0163,-0.0163,-0.0163,-0.0163,0,0.0363,0.0445,0.0579,0.0744,0.09,0.0946,0.1161,0.1294,0.1523,0.169,0.1811,0.1662,0.1196,0.0675,-0.0055,-0.0432,-0.0572,-0.0646,-0.0748,-0.0777,-0.039,-0.0389,-0.0469,-0.0469,-0.0469,-0.0469,-0.0469,-0.0468,0.0411,0.0543,0.0609,0.0863,0.0989,0.1187,0.1314,0.1515,0.168,0.1897,0.1951,0.1948,0.1519,0.0256,-0.0586,-0.0774,-0.1031,-0.1103,-0.1235,-0.0978,-0.0956,-0.0935,-0.0956,-0.1154,-0.1155,-0.1548,-0.1553,-0.1556]}],[{"header":{"parameterUnit":"m.s-1","parameterCategory":2,"la1":30.2991,"la2":30.254,"lo1":-89.0895,"lo2":-89.0444,"dy":0.0017,"dx":0.0017,"nx":28,"ny":28,"refTime":"2025-12-05T09:00:00:Z","depth":"2","parameterNumber":2,"parameterNumberName":"U-component_of_CURRENTS"},"data":[0,0,0,0,0,0,0,0,0,0,0,0,0,0,0,0,0,0,0,0,0,0,0,0,0,0,0,0,0,0,0,0,0,0,0,0,0,0,0,0,0,0,0,0,0,0,0,0,0,0,0,0,0,0,0,0,0,0,0.2991,0.2991,0,0.2996,0.2996,0.2996,0.3,0.3,0.3001,0.3001,0.3016,0.3016,0.3016,0,0,0,0,0,0,0,0,0,0,0,0,0,0.2987,0.2987,0.2991,0.2991,0.2991,0.2996,0.2996,0.2996,0.3,0.3,0.3001,0.3001,0.3016,0.3016,0.3016,0,0,0,0,0,0,0,0,0,0,0,0,0,0.2988,0.2987,0.299,0.2996,0.2997,0.2996,0.2996,0.2996,0.3,0.3,0.3001,0.3001,0.3016,0.3016,0.3016,0.3009,0,0,0.3017,0.3017,0,0,0,0,0,0,0,0,0.2988,0.2988,0.2995,0.2996,0.2996,0.3,0.3001,0.3002,0.3,0.2996,0.3001,0.3001,0.3013,0.3014,0.301,0.301,0.3011,0.3017,0.3017,0.3017,0.3017,0,0,0,0,0,0,0,0.2988,0.2987,0.299,0.2995,0.2996,0.3,0.3,0.3001,0.3,0.2996,0.2997,0.3002,0.3013,0.301,0.301,0.3011,0.3017,0.3017,0.3017,0.3018,0.309,0.3092,0,0,0,0,0,0,0.2992,0.2987,0.299,0.299,0.2996,0.3,0.3,0.2996,0.3,0.3002,0.3002,0.3002,0.3009,0.301,0.3011,0.3078,0.3017,0.3018,0.3018,0.3088,0.309,0.3092,0,0,0,0,0,0,0.2992,0.2992,0.299,0.2992,0.2992,0.2999,0.2996,0.2996,0.3005,0.3005,0.3006,0.3012,0.3009,0.3011,0.303,0.3075,0.3018,0.3018,0.3086,0.3089,0.3091,0.3163,0,0,0,0,0,0,0.2991,0.2991,0.2984,0.2992,0.2992,0.3001,0.2996,0.2996,0.3008,0.3009,0.3013,0.3014,0.301,0.3029,0.303,0.3075,0.3018,0.3084,0.3087,0.3091,0.3158,0.3168,0.3176,0,0,0,0,0,0.2991,0.2978,0.2983,0.2984,0.2984,0.3001,0.3002,0.3007,0.3009,0.3015,0.3023,0.3015,0.3052,0.303,0.3031,0.3077,0.3082,0.3086,0.309,0.3154,0.3166,0.3176,0,0,0,0,0,0,0.2958,0.2978,0.2984,0.2973,0.2994,0.3004,0.3017,0.3014,0.3023,0.3039,0.3025,0.3027,0.3069,0.3057,0.3034,0.3109,0.3071,0.3075,0.312,0.313,0.3139,0.3147,0.3018,0,0,0,0,0,0.2952,0.2971,0.2977,0.2983,0.2995,0.3009,0.3015,0.3027,0.3039,0.3044,0.305,0.3065,0.3083,0.3093,0.3108,0.3134,0.3133,0.3169,0.3178,0.3185,0.3193,0.3229,0.3242,0.3106,0.3106,0.3106,0,0,0.2948,0.2963,0.2973,0.2982,0.3007,0.3022,0.3014,0.3047,0.3067,0.3045,0.3083,0.3097,0.3097,0.314,0.3158,0.3136,0.3224,0.319,0.3197,0.3201,0.3235,0.3248,0.326,0.3108,0.3108,0.3108,0,0,0.2957,0.2965,0.2981,0.3002,0.304,0.3051,0.3063,0.3088,0.3107,0.3133,0.314,0.3175,0.3189,0.3211,0.3217,0.3279,0.3271,0.3295,0.3342,0.3378,0.3389,0.3399,0.3414,0.3425,0.3296,0.3296,0.3296,0,0.2958,0.2965,0.2989,0.3009,0.3034,0.3065,0.3086,0.3108,0.3138,0.3166,0.3159,0.322,0.3223,0.3277,0.3307,0.3301,0.3313,0.33,0.3389,0.3399,0.3408,0.3421,0.3432,0.33,0.33,0.3299,0.3299,0,0.2962,0.2983,0.3006,0.3046,0.3069,0.3108,0.314,0.3179,0.3207,0.3228,0.3297,0.3308,0.3343,0.3361,0.335,0.343,0.3416,0.3398,0.3361,0.3426,0.3436,0.3446,0.3306,0.3304,0.3303,0.3302,0,0,0.2946,0.2998,0.3013,0.3031,0.3099,0.3111,0.3178,0.3231,0.3274,0.3319,0.337,0.342,0.3443,0.3453,0.3463,0.3497,0.3571,0.3483,0.3483,0.3495,0.3647,0.3577,0.3581,0.3576,0.3578,0.358,0.3627,0,0.2957,0.2985,0.3021,0.3067,0.3081,0.315,0.3201,0.3261,0.3317,0.3377,0.3425,0.3479,0.3472,0.3505,0.3542,0.3571,0.3602,0.3559,0.3585,0.3585,0.3512,0.3592,0.3308,0.3322,0.3637,0.3639,0.364,0,0.2936,0.2966,0.3008,0.3069,0.3086,0.313,0.3228,0.3279,0.3386,0.3434,0.3511,0.3543,0.3624,0.3596,0.3679,0.3657,0.3662,0.3671,0.3672,0.3589,0.3534,0.3308,0.3328,0.3656,0.3655,0.3654,0.3653,0,0.2886,0.2947,0.2983,0.3008,0.309,0.3144,0.3201,0.3309,0.3366,0.3491,0.354,0.3629,0.368,0.3718,0.3745,0.3726,0.3816,0.378,0.3717,0.3711,0.3463,0.3432,0.3828,0.3828,0.3828,0.3828,0.3828,0,0.2862,0.2895,0.2966,0.2994,0.3036,0.3117,0.3201,0.3274,0.3403,0.3464,0.3571,0.3627,0.3717,0.377,0.3779,0.3788,0.3844,0.3744,0.373,0.348,0.3451,0.3731,0.3719,0.383,0.383,0.3829,0.3829,0,0.2802,0.2866,0.2892,0.2983,0.3017,0.3048,0.3183,0.3241,0.338,0.3467,0.3513,0.3654,0.3735,0.3793,0.386,0.3823,0.384,0.3819,0.3517,0.3467,0.3699,0.369,0.3759,0.3757,0.3755,0.3754,0.3753,0,0.2774,0.278,0.2854,0.2883,0.294,0.3013,0.3074,0.3215,0.3281,0.3459,0.3486,0.3622,0.3675,0.3766,0.3745,0.3754,0.3818,0.3478,0.3387,0.3718,0.3698,0.3691,0.3685,0.3082,0.3075,0.307,0.3066,0,0.2709,0.2743,0.2783,0.2818,0.288,0.2906,0.3005,0.3046,0.3207,0.3282,0.3381,0.3452,0.3565,0.3462,0.3501,0.3462,0.3459,0.3371,0.3801,0.3153,0.3086,0.3064,0.3079,0.3018,0.3023,0.3027,0.3029,0.3031,0.267,0.2652,0.2706,0.273,0.2784,0.2783,0.2772,0.2873,0.2927,0.3001,0.3166,0.3174,0.3238,0.3159,0.3071,0.3004,0.3238,0.3076,0.309,0.3109,0.3032,0.2968,0.2862,0.2865,0.2868,0.2871,0.2874,0,0.2561,0.2576,0.2605,0.2612,0.2607,0.2674,0.2703,0.2662,0.2652,0.2766,0.2826,0.2632,0.2592,0.2652,0.2486,0.2498,0.2446,0.2387,0.2285,0.2335,0.238,0.2261,0.1888,0.1885,0.1881,0.1879,0,0,0.252,0.25,0.2495,0.2437,0.2447,0.2362,0.2339,0.2301,0.2331,0.2293,0.2283,0.2487,0.2588,0.2201,0.2163,0.1993,0.2142,0.1916,0.2714,0.2646,0.2685,0.2796,0.2675,0,0,0,0,0]},{"header":{"parameterUnit":"m.s-1","parameterCategory":2,"la1":30.2991,"la2":30.254,"lo1":-89.0895,"lo2":-89.0444,"dy":0.0017,"dx":0.0017,"nx":28,"ny":28,"refTime":"2025-12-05T09:00:00:Z","depth":"2","parameterNumber":3,"parameterNumberName":"V-component_of_CURRENTS"},"data":[0,0,0,0,0,0,0,0,0,0,0,0,0,0,0,0,0,0,0,0,0,0,0,0,0,0,0,0,0,0,0,0,0,0,0,0,0,0,0,0,0,0,0,0,0,0,0,0,0,0,0,0,0,0,0,0,0,0,0.0264,0.0264,0,0.0227,0.0226,0.0226,0.0191,0.019,0.019,0.019,0.0131,0.013,0.0129,0,0,0,0,0,0,0,0,0,0,0,0,0,0.0256,0.0256,0.0264,0.0264,0.0263,0.0227,0.0226,0.0226,0.0191,0.019,0.019,0.0189,0.0132,0.013,0.0129,0,0,0,0,0,0,0,0,0,0,0,0,0,0.0242,0.0256,0.0264,0.0242,0.024,0.0227,0.0226,0.0226,0.0191,0.019,0.019,0.0189,0.0132,0.0131,0.0129,0.0128,0,0,0.0123,0.0122,0,0,0,0,0,0,0,0,0.0243,0.0242,0.0246,0.0244,0.0241,0.0214,0.0202,0.0192,0.0191,0.0208,0.019,0.0189,0.0158,0.0154,0.0147,0.0125,0.0123,0.0123,0.0122,0.0121,0.0121,0,0,0,0,0,0,0,0.0244,0.0243,0.0248,0.0245,0.0243,0.0217,0.0215,0.02,0.0185,0.0207,0.0204,0.0202,0.0156,0.0149,0.0145,0.0122,0.0123,0.0121,0.012,0.012,0.009,0.009,0,0,0,0,0,0,0.0254,0.0245,0.0249,0.0247,0.0242,0.0218,0.0216,0.0222,0.0186,0.018,0.0203,0.0201,0.0152,0.0148,0.0143,0.0148,0.0121,0.0119,0.0118,0.0089,0.009,0.009,0,0,0,0,0,0,0.0254,0.0255,0.0251,0.0245,0.0243,0.0219,0.0227,0.0222,0.0214,0.0183,0.0177,0.0199,0.0152,0.0146,0.0135,0.0145,0.0119,0.0117,0.0089,0.009,0.009,0.0153,0,0,0,0,0,0,0.0254,0.0256,0.0263,0.0246,0.0244,0.0253,0.0227,0.0221,0.0213,0.021,0.0179,0.0172,0.0151,0.0138,0.0133,0.0142,0.0115,0.0089,0.0089,0.009,0.015,0.0155,0.016,0,0,0,0,0,0.0254,0.0274,0.0263,0.0264,0.0255,0.0254,0.0251,0.0231,0.0214,0.0219,0.0195,0.0173,0.0138,0.0137,0.0131,0.014,0.0088,0.0089,0.009,0.0148,0.0154,0.016,0,0,0,0,0,0,0.0278,0.0272,0.026,0.0278,0.0268,0.0249,0.0251,0.0235,0.0219,0.0212,0.018,0.0174,0.0167,0.0144,0.0144,0.0132,0.0108,0.0108,0.0155,0.016,0.0165,0.0183,0.0114,0,0,0,0,0,0.0286,0.0294,0.0284,0.0295,0.0294,0.0271,0.0266,0.0253,0.0237,0.0229,0.0206,0.0181,0.0165,0.0156,0.0138,0.0134,0.0103,0.0134,0.0139,0.0143,0.0153,0.0112,0.0114,0.0092,0.0092,0.0092,0,0,0.0296,0.0293,0.0298,0.0299,0.0288,0.0302,0.0267,0.0265,0.0275,0.0225,0.0228,0.0197,0.0168,0.0163,0.0158,0.0147,0.0131,0.0144,0.0148,0.0156,0.0113,0.0115,0.0117,0.0093,0.0093,0.0093,0,0,0.0328,0.0321,0.0341,0.034,0.0331,0.0321,0.0324,0.0307,0.0297,0.0294,0.0261,0.024,0.0214,0.0198,0.0185,0.0205,0.0157,0.0192,0.0232,0.0192,0.0194,0.0195,0.0155,0.0152,0.0195,0.0195,0.0195,0,0.0339,0.0367,0.0346,0.0367,0.0374,0.0336,0.0364,0.0352,0.0332,0.0331,0.0304,0.0264,0.0234,0.0234,0.0236,0.0217,0.0182,0.0215,0.0199,0.02,0.02,0.0158,0.0154,0.0198,0.0198,0.0198,0.0197,0,0.0392,0.041,0.0422,0.0438,0.0442,0.0457,0.0443,0.044,0.0416,0.0401,0.0386,0.0339,0.0318,0.0299,0.0272,0.0262,0.0232,0.021,0.0188,0.0206,0.016,0.0155,0.0203,0.0202,0.0201,0.02,0,0,0.0427,0.0456,0.0458,0.0482,0.0483,0.0496,0.0509,0.0517,0.0534,0.0488,0.0501,0.0452,0.0414,0.0397,0.0353,0.0313,0.0275,0.0263,0.026,0.0229,0.0181,0.0162,0.0154,0.0244,0.0244,0.0243,0.0149,0,0.0474,0.0536,0.0533,0.0588,0.0621,0.0597,0.0619,0.0614,0.0597,0.0597,0.0532,0.0524,0.0456,0.0443,0.0392,0.0311,0.0264,0.0303,0.0164,0.016,0.0145,0.0148,0.0174,0.0092,0.0143,0.0142,0.0141,0,0.0529,0.0565,0.0631,0.0676,0.0688,0.0709,0.0739,0.0757,0.0739,0.0724,0.0688,0.0632,0.0576,0.051,0.0374,0.0398,0.0297,0.0222,0.0216,0.0175,0.0131,0.0081,0.0079,0.0131,0.0132,0.0133,0.0134,0,0.0578,0.0634,0.0692,0.0707,0.0748,0.0768,0.0789,0.0792,0.0827,0.0804,0.0813,0.0725,0.0691,0.0553,0.0389,0.0378,0.023,0.0196,0.0082,0.0079,0.0064,0.0061,0.0095,0.0095,0.0095,0.0096,0.0096,0,0.0639,0.0683,0.0719,0.0752,0.0825,0.0828,0.0902,0.0904,0.0927,0.0975,0.0882,0.089,0.0697,0.0586,0.0422,0.024,0.0252,0.0092,0.0056,0.0086,0.0086,0.0093,0.0094,0.0092,0.0093,0.0093,0.0094,0,0.0688,0.0708,0.0781,0.0831,0.0852,0.0906,0.0987,0.1044,0.1044,0.1101,0.1096,0.1014,0.0871,0.0667,0.045,0.0298,0.0118,0.0047,0.0095,0.0066,-0.0019,-0.0013,-0.0088,-0.0089,-0.0091,-0.0092,-0.0092,0,0.0722,0.0763,0.0842,0.0891,0.0916,0.0998,0.1062,0.1101,0.1167,0.1181,0.1214,0.1097,0.1035,0.0713,0.0427,0.0143,0.0106,-0.0025,-0.0042,-0.0008,-0.0036,-0.0029,-0.0022,-0.0045,-0.0046,-0.0046,-0.0046,0,0.0785,0.0805,0.0866,0.0966,0.1038,0.1143,0.123,0.1299,0.1345,0.1383,0.1405,0.1353,0.1056,0.0779,0.0392,0.0202,0.0022,-0.0041,-0.0019,0.0004,0.0026,0.0001,0.0007,-0.0049,-0.0049,-0.0049,-0.0048,-0.0048,0.0827,0.0879,0.0949,0.1047,0.1138,0.1258,0.1345,0.1438,0.1541,0.159,0.1546,0.147,0.116,0.0671,0.0339,-0.0009,0.001,-0.0116,-0.0112,-0.0109,-0.008,-0.0061,-0.0147,-0.0148,-0.0148,-0.0148,-0.0148,0,0.0876,0.0933,0.1026,0.1139,0.124,0.1283,0.1437,0.1518,0.1631,0.1676,0.1686,0.1385,0.1075,0.0713,0.0199,-0.0101,-0.0119,-0.0199,-0.0155,-0.015,-0.0145,-0.0117,-0.0195,-0.0196,-0.0197,-0.0198,0,0,0.0901,0.0988,0.1035,0.1192,0.1276,0.1414,0.1501,0.1613,0.1681,0.1721,0.1679,0.1611,0.1176,0.0797,0.0388,0.0091,0.004,0.0034,0.0105,0.0211,0.0219,-0.0062,-0.0008,0,0,0,0,0]}],[{"header":{"parameterUnit":"m.s-1","parameterCategory":2,"la1":30.2991,"la2":30.254,"lo1":-89.0895,"lo2":-89.0444,"dy":0.0017,"dx":0.0017,"nx":28,"ny":28,"refTime":"2025-12-05T09:00:00:Z","depth":"4","parameterNumber":2,"parameterNumberName":"U-component_of_CURRENTS"},"data":[0,0,0,0,0,0,0,0,0,0,0,0,0,0,0,0,0,0,0,0,0,0,0,0,0,0,0,0,0,0,0,0,0,0,0,0,0,0,0,0,0,0,0,0,0,0,0,0,0,0,0,0,0,0,0,0,0,0,0.172,0.1721,0,0.1814,0.1815,0.1815,0.1888,0.1889,0.189,0.1891,0.2003,0.2005,0.2007,0,0,0,0,0,0,0,0,0,0,0,0,0,0.1606,0.1608,0.172,0.1721,0.1722,0.1814,0.1815,0.1816,0.1888,0.1889,0.189,0.1891,0.2002,0.2005,0.2008,0,0,0,0,0,0,0,0,0,0,0,0,0,0.1671,0.1608,0.1719,0.1771,0.1777,0.1813,0.1815,0.1816,0.1888,0.1889,0.189,0.1892,0.2002,0.2005,0.2008,0.2002,0,0,0.2018,0.2019,0,0,0,0,0,0,0,0,0.1667,0.1675,0.1762,0.1768,0.1774,0.1842,0.1816,0.188,0.1887,0.1843,0.1891,0.1892,0.1952,0.1959,0.197,0.2007,0.2012,0.2018,0.202,0.2022,0.2023,0,0,0,0,0,0,0,0.1663,0.1671,0.1755,0.1763,0.1771,0.1791,0.1801,0.1828,0.1887,0.1847,0.1853,0.1867,0.1955,0.1967,0.1974,0.2013,0.2018,0.2021,0.2023,0.2024,0.2177,0.2179,0,0,0,0,0,0,0.1654,0.1667,0.1752,0.1758,0.1725,0.1792,0.1803,0.1817,0.1887,0.1899,0.1865,0.187,0.1961,0.197,0.1978,0.2084,0.2022,0.2025,0.2026,0.2175,0.2178,0.218,0,0,0,0,0,0,0.1651,0.1661,0.1748,0.1716,0.1729,0.1793,0.1808,0.1819,0.1874,0.1901,0.1914,0.1915,0.1962,0.1973,0.2038,0.2085,0.2026,0.2029,0.2172,0.2176,0.2179,0.2226,0,0,0,0,0,0,0.1647,0.1659,0.1687,0.1716,0.1731,0.1794,0.1807,0.182,0.1879,0.1886,0.1947,0.1956,0.1964,0.2033,0.2041,0.2088,0.2032,0.217,0.2174,0.2178,0.2221,0.223,0.2237,0,0,0,0,0,0.1643,0.1665,0.1688,0.1699,0.176,0.1795,0.1806,0.1853,0.188,0.1908,0.1952,0.1957,0.2065,0.2037,0.2046,0.2095,0.2168,0.2173,0.2177,0.2218,0.2228,0.2237,0,0,0,0,0,0,0.1628,0.1676,0.1701,0.1738,0.1778,0.1809,0.1844,0.1875,0.1932,0.1952,0.1977,0.1989,0.2066,0.2074,0.2043,0.2152,0.212,0.2126,0.2147,0.2157,0.2165,0.2166,0.2034,0,0,0,0,0,0.1637,0.1672,0.1713,0.1747,0.177,0.1816,0.1846,0.1878,0.192,0.1949,0.1991,0.2039,0.2084,0.2116,0.2152,0.2206,0.2217,0.2247,0.2255,0.2261,0.227,0.2329,0.2342,0.2195,0.2195,0.2195,0,0,0.164,0.1673,0.1694,0.1748,0.1784,0.1823,0.1838,0.1891,0.1935,0.1951,0.2034,0.207,0.2106,0.2171,0.2206,0.2188,0.2309,0.2267,0.2273,0.2278,0.2335,0.2349,0.2362,0.2199,0.2198,0.2197,0,0,0.1651,0.1694,0.1728,0.1763,0.1826,0.1852,0.1877,0.1933,0.1977,0.2048,0.2076,0.214,0.2209,0.2242,0.2266,0.234,0.2349,0.2363,0.2406,0.2463,0.2475,0.2486,0.251,0.2522,0.2367,0.2367,0.2367,0,0.1662,0.1702,0.1743,0.1782,0.1817,0.187,0.191,0.1957,0.2031,0.207,0.2086,0.2212,0.2241,0.232,0.2351,0.2359,0.2384,0.2363,0.2472,0.2483,0.2494,0.2515,0.2529,0.237,0.237,0.2369,0.2369,0,0.1683,0.1734,0.1755,0.1825,0.1867,0.1908,0.197,0.203,0.209,0.2135,0.224,0.2287,0.2361,0.2386,0.2394,0.249,0.2481,0.2473,0.2443,0.2511,0.253,0.2543,0.2374,0.2373,0.2372,0.2371,0,0,0.1657,0.1753,0.1766,0.1808,0.1894,0.1925,0.2007,0.2085,0.2153,0.2232,0.2319,0.2403,0.2441,0.2473,0.2501,0.2552,0.2642,0.2553,0.2555,0.2567,0.2759,0.2569,0.2565,0.2663,0.2666,0.2668,0.2738,0,0.1668,0.1738,0.1788,0.1865,0.1906,0.1979,0.205,0.2132,0.2213,0.231,0.2378,0.2475,0.2471,0.2531,0.258,0.2639,0.2681,0.2622,0.2699,0.2701,0.2517,0.2575,0.2677,0.2748,0.2751,0.2753,0.2754,0,0.1669,0.172,0.1791,0.1894,0.1921,0.1981,0.2103,0.2176,0.2309,0.2377,0.2477,0.2541,0.2646,0.2632,0.2751,0.2721,0.2747,0.2774,0.2777,0.2592,0.2535,0.267,0.2778,0.2776,0.2774,0.2773,0.2771,0,0.1616,0.1721,0.1779,0.1812,0.1935,0.1994,0.2072,0.2203,0.228,0.244,0.2516,0.2633,0.2718,0.278,0.2836,0.2818,0.2946,0.292,0.2765,0.2752,0.288,0.2868,0.2995,0.2995,0.2995,0.2995,0.2995,0,0.1586,0.1639,0.1768,0.1795,0.1884,0.1983,0.2095,0.219,0.2338,0.2427,0.2556,0.2635,0.2769,0.2849,0.2874,0.2852,0.2977,0.2779,0.2763,0.2896,0.2885,0.2888,0.2875,0.2997,0.2997,0.2996,0.2996,0,0.1515,0.1597,0.1675,0.1811,0.1862,0.193,0.2098,0.2169,0.2327,0.2452,0.2512,0.2675,0.2771,0.286,0.2967,0.2882,0.2895,0.2854,0.299,0.2979,0.2651,0.264,0.2682,0.2676,0.2671,0.2666,0.2663,0,0.1479,0.1515,0.1667,0.1716,0.1786,0.1904,0.1979,0.2149,0.2223,0.2445,0.2482,0.2645,0.2729,0.2715,0.2821,0.2842,0.281,0.2786,0.2711,0.2642,0.2623,0.262,0.2616,0.2655,0.2654,0.2652,0.2651,0,0.141,0.1483,0.1543,0.1646,0.1734,0.1814,0.1936,0.1975,0.2164,0.2328,0.2397,0.245,0.2542,0.2599,0.2636,0.2647,0.2786,0.2733,0.2742,0.2672,0.261,0.2595,0.2597,0.2633,0.2636,0.2637,0.2638,0,0.1364,0.1388,0.148,0.1558,0.1657,0.1693,0.177,0.1852,0.1944,0.2181,0.2198,0.2362,0.2516,0.2499,0.2536,0.2529,0.2486,0.2393,0.2419,0.244,0.2327,0.2211,0.2103,0,0,0,0,0,0.1307,0.1321,0.1382,0.145,0.1538,0.1598,0.1726,0.1805,0.1986,0.1976,0.2082,0.2156,0.221,0.2293,0.2237,0.2428,0.2496,0.2351,0.2401,0.2536,0.2556,0.2444,0,0,0,0,0,0,0.1268,0.132,0.134,0.1345,0.137,0.1447,0.1521,0.1639,0.1642,0.1834,0.1874,0.202,0.2105,0.2223,0.2196,0.2221,0.2204,0.2457,0.2451,0.2524,0.2543,0.2559,0.2451,0,0,0,0,0]},{"header":{"parameterUnit":"m.s-1","parameterCategory":2,"la1":30.2991,"la2":30.254,"lo1":-89.0895,"lo2":-89.0444,"dy":0.0017,"dx":0.0017,"nx":28,"ny":28,"refTime":"2025-12-05T09:00:00:Z","depth":"4","parameterNumber":3,"parameterNumberName":"V-component_of_CURRENTS"},"data":[0,0,0,0,0,0,0,0,0,0,0,0,0,0,0,0,0,0,0,0,0,0,0,0,0,0,0,0,0,0,0,0,0,0,0,0,0,0,0,0,0,0,0,0,0,0,0,0,0,0,0,0,0,0,0,0,0,0,0.0281,0.028,0,0.0256,0.0255,0.0255,0.0238,0.0238,0.0238,0.0238,0.0208,0.0207,0.0206,0,0,0,0,0,0,0,0,0,0,0,0,0,0.0274,0.0274,0.0281,0.028,0.028,0.0256,0.0255,0.0255,0.0238,0.0238,0.0238,0.0238,0.0208,0.0207,0.0206,0,0,0,0,0,0,0,0,0,0,0,0,0,0.0265,0.0274,0.0281,0.0269,0.0268,0.0256,0.0255,0.0255,0.0238,0.0238,0.0238,0.0238,0.0208,0.0207,0.0206,0.0202,0,0,0.0203,0.0202,0,0,0,0,0,0,0,0,0.0266,0.0266,0.0271,0.027,0.0268,0.025,0.0242,0.0237,0.0238,0.0249,0.0238,0.0238,0.0222,0.0219,0.0215,0.0201,0.0199,0.0203,0.0202,0.0202,0.0201,0,0,0,0,0,0,0,0.0267,0.0266,0.027,0.0271,0.0269,0.0251,0.025,0.0241,0.0236,0.0248,0.0247,0.0245,0.0221,0.0216,0.0214,0.0199,0.0203,0.0202,0.0201,0.0201,0.0185,0.0185,0,0,0,0,0,0,0.0273,0.0267,0.0271,0.027,0.0267,0.0252,0.025,0.0256,0.0236,0.0233,0.0245,0.0244,0.0218,0.0215,0.0213,0.0226,0.0202,0.0201,0.02,0.0185,0.0185,0.0185,0,0,0,0,0,0,0.0273,0.0274,0.0272,0.0267,0.0266,0.0252,0.0258,0.0255,0.0255,0.0234,0.0231,0.0247,0.0218,0.0214,0.0212,0.0224,0.02,0.0199,0.0184,0.0185,0.0185,0.024,0,0,0,0,0,0,0.0273,0.0274,0.0281,0.0268,0.0267,0.0274,0.0258,0.0255,0.0253,0.0252,0.0235,0.0232,0.0217,0.0214,0.0211,0.0222,0.0198,0.0184,0.0185,0.0185,0.0238,0.0242,0.0246,0,0,0,0,0,0.0273,0.0288,0.0282,0.0282,0.0277,0.0275,0.0273,0.0262,0.0254,0.0259,0.0247,0.0232,0.0214,0.0213,0.021,0.0221,0.0184,0.0184,0.0185,0.0236,0.0241,0.0246,0,0,0,0,0,0,0.0289,0.0287,0.028,0.0293,0.0287,0.0273,0.0277,0.0267,0.026,0.026,0.0238,0.0235,0.0236,0.0219,0.0219,0.0216,0.0195,0.0195,0.0235,0.024,0.0244,0.0255,0.0197,0,0,0,0,0,0.0296,0.0306,0.0297,0.0307,0.0306,0.0291,0.0289,0.0282,0.0273,0.027,0.0258,0.0243,0.0234,0.0231,0.0219,0.022,0.0187,0.0223,0.0227,0.0231,0.0237,0.0191,0.0192,0.0187,0.0187,0.0187,0,0,0.0305,0.0304,0.031,0.0311,0.0305,0.0315,0.029,0.0293,0.0302,0.0268,0.0278,0.0258,0.0237,0.0239,0.0238,0.0228,0.0214,0.0231,0.0235,0.0239,0.0192,0.0192,0.0193,0.0187,0.0187,0.0187,0,0,0.033,0.0328,0.0345,0.0345,0.0341,0.0334,0.0337,0.0327,0.0324,0.0327,0.0305,0.0293,0.0281,0.0268,0.026,0.0277,0.0236,0.0272,0.0304,0.026,0.026,0.026,0.0217,0.0213,0.0275,0.0275,0.0275,0,0.034,0.0362,0.0349,0.0365,0.0372,0.0347,0.0369,0.0362,0.0352,0.0354,0.0339,0.0314,0.0295,0.0295,0.0301,0.0288,0.0254,0.029,0.0266,0.0265,0.0263,0.0219,0.0214,0.0278,0.0277,0.0277,0.0277,0,0.0377,0.0394,0.0405,0.0419,0.0425,0.0438,0.043,0.0433,0.0422,0.0411,0.0405,0.0372,0.0358,0.0347,0.0332,0.0319,0.0294,0.0276,0.0256,0.0267,0.022,0.0213,0.0282,0.0281,0.028,0.0279,0,0,0.0401,0.0428,0.0432,0.0452,0.0457,0.0468,0.0484,0.0491,0.0504,0.0478,0.0486,0.0458,0.0431,0.0419,0.0389,0.0352,0.0312,0.0316,0.0312,0.0277,0.0212,0.0199,0.0189,0.0286,0.0285,0.0285,0.0182,0,0.0435,0.0482,0.0485,0.053,0.0554,0.0544,0.0565,0.0565,0.0555,0.0554,0.0508,0.0504,0.0462,0.0456,0.0411,0.0341,0.0297,0.0342,0.0203,0.0199,0.0189,0.0182,0.0282,0.0177,0.0175,0.0174,0.0173,0,0.0469,0.0499,0.0553,0.0594,0.0604,0.0628,0.0656,0.0672,0.0658,0.0648,0.0621,0.0581,0.0535,0.0491,0.0368,0.0397,0.0312,0.0247,0.0241,0.0206,0.0173,0.0161,0.016,0.0161,0.0162,0.0163,0.0163,0,0.0496,0.0547,0.0596,0.061,0.0649,0.0675,0.0697,0.0701,0.0727,0.0709,0.0712,0.064,0.0611,0.0495,0.0364,0.0362,0.0215,0.0194,0.0098,0.0095,0.0114,0.0115,0.0097,0.0097,0.0097,0.0098,0.0098,0,0.053,0.057,0.0617,0.0644,0.0709,0.0719,0.0782,0.0786,0.0802,0.0832,0.0766,0.0758,0.0609,0.0508,0.0378,0.0219,0.0221,0.0101,0.0068,0.0139,0.0144,0.0108,0.0111,0.0094,0.0095,0.0095,0.0096,0,0.0551,0.058,0.0642,0.0699,0.0725,0.0772,0.085,0.0889,0.0894,0.0926,0.0924,0.0844,0.0712,0.0551,0.0361,0.0247,0.0091,0.0032,0.0123,0.0097,-0.0005,0.0002,-0.0086,-0.0088,-0.0089,-0.009,-0.0091,0,0.0566,0.0599,0.0686,0.0731,0.0763,0.084,0.0895,0.0934,0.0974,0.0975,0.0986,0.0881,0.0803,0.0529,0.0354,0.0099,0.0061,-0.0027,-0.0021,-0.0,-0.0024,-0.0016,-0.0008,-0.0092,-0.0093,-0.0093,-0.0093,0,0.059,0.0623,0.0675,0.077,0.084,0.0926,0.1001,0.1036,0.1072,0.108,0.103,0.0892,0.0742,0.053,0.0333,0.0151,0.0027,-0.004,-0.0039,-0.0034,-0.0009,-0.0029,-0.002,-0.0097,-0.0096,-0.0096,-0.0096,0,0.0608,0.0648,0.0717,0.0801,0.0894,0.0974,0.102,0.106,0.1099,0.1089,0.1071,0.0912,0.0824,0.0556,0.0376,0.0195,0.0143,0.0073,0.0067,0.0069,0.0144,0.02,0.0147,0,0,0,0,0,0.0619,0.0663,0.0741,0.0831,0.0925,0.0979,0.1071,0.1107,0.114,0.111,0.1092,0.0951,0.0686,0.0578,0.0394,0.0343,0.0106,0.0119,0.0021,-0.0118,-0.0114,-0.0054,0,0,0,0,0,0,0.0625,0.0696,0.0735,0.084,0.0903,0.1007,0.1068,0.1093,0.1077,0.108,0.0948,0.0887,0.0637,0.0787,0.0384,0.0331,0.0238,0.0003,-0.0002,-0.0121,-0.0117,-0.0113,-0.0051,0,0,0,0,0]}]]